TB1YZC-13 Weather Reports


time (UTC)temp
C
wind
direction
speed
KPH
gust
KPH
rain 1hr
cm
rain 24hr
cm
rain mn
cm
humidity
%
barometer
mb
20260906074240 29 0.0 0.0 0.00 0.00 0.00 38 1018.6
20260906073237 29 0.0 0.0 0.00 0.00 0.00 39 1018.7
20260906072233 28 0.0 0.0 0.00 0.00 0.00 40 1018.7
20260906071230 28 0.0 0.0 0.00 0.00 0.00 41 1018.5
20260906070226 28 0.0 0.0 0.00 0.00 0.00 41 1018.4
20260906065223 28 0.0 0.0 0.00 0.00 0.00 40 1018.3
20260906064220 27 0.0 0.0 0.00 0.00 0.00 40 1018.3
20260906063217 27 0.0 0.0 0.00 0.00 0.00 40 1018.1
20260906062213 27 0.0 0.0 0.00 0.00 0.00 41 1018.1
20260906061210 27 0.0 0.0 0.00 0.00 0.00 42 1018.2
20260906060207 26 0.0 0.0 0.00 0.00 0.00 44 1018.1
20260906055204 25 0.0 0.0 0.00 0.00 0.00 47 1018.1
20260906054201 25 0.0 0.0 0.00 0.00 0.00 47 1018.0
20260906053157 25 0.0 0.0 0.00 0.00 0.00 48 1018.2
20260906052154 24 0.0 0.0 0.00 0.00 0.00 50 1018.3
20260906051151 23 0.0 0.0 0.00 0.00 0.00 61 1018.4
20260906050148 22 0.0 0.0 0.00 0.00 0.00 63 1018.4
20260906045144 21 0.0 0.0 0.00 0.00 0.00 66 1018.3
20260906044141 20 0.0 0.0 0.00 0.00 0.00 68 1018.3
20260906043138 20 0.0 0.0 0.00 0.00 0.00 70 1018.3
20260906042135 20 0.0 0.0 0.00 0.00 0.00 70 1018.2
20260906041132 18 0.0 0.0 0.00 0.00 0.00 74 1018.2
20260906040129 18 0.0 0.0 0.00 0.00 0.00 76 1018.1
20260906035126 18 0.0 0.0 0.00 0.00 0.00 76 1018.1
20260906034123 18 0.0 0.0 0.00 0.00 0.00 77 1018.0
20260906033119 18 0.0 0.0 0.00 0.00 0.00 77 1018.0
20260906032116 18 0.0 0.0 0.00 0.00 0.00 76 1017.9
20260906031113 18 0.0 0.0 0.00 0.00 0.00 76 1017.8
20260906030110 18 0.0 0.0 0.00 0.00 0.00 76 1017.7
20260906025107 18 0.0 0.0 0.00 0.00 0.00 77 1017.7
20260906024104 18 0.0 0.0 0.00 0.00 0.00 77 1017.7
20260906023101 18 0.0 0.0 0.00 0.00 0.00 76 1017.8
20260906022057 18 0.0 0.0 0.00 0.00 0.00 76 1017.8
20260906021054 18 0.0 0.0 0.00 0.00 0.00 76 1017.9
20260906020051 18 0.0 0.0 0.00 0.00 0.00 75 1017.8
20260906015048 18 0.0 0.0 0.00 0.00 0.00 77 1017.8
20260906014045 18 0.0 0.0 0.00 0.00 0.00 76 1017.8
20260906013042 18 0.0 0.0 0.00 0.00 0.00 75 1017.8
20260906012039 18 0.0 0.0 0.00 0.00 0.00 77 1017.8
20260906011035 19 0.0 0.0 0.00 0.00 0.00 76 1017.9
20260906010032 19 0.0 0.0 0.00 0.00 0.00 77 1017.7
20260906005029 19 0.0 0.0 0.00 0.00 0.00 77 1017.8
20260906004026 19 0.0 0.0 0.00 0.00 0.00 77 1017.7
20260906003023 19 0.0 0.0 0.00 0.00 0.00 75 1017.9
20260906002020 20 0.0 0.0 0.00 0.00 0.00 74 1017.9
20260906001016 20 0.0 0.0 0.00 0.00 0.00 73 1017.9
20260906000014 20 0.0 0.0 0.00 0.00 0.00 74 1017.8
20260905235010 20 0.0 0.0 0.00 0.00 0.00 74 1017.8
20260905234007 20 0.0 0.0 0.00 0.00 0.00 75 1017.7
20260905233004 20 0.0 0.0 0.00 0.00 0.00 75 1017.8
20260905232001 20 0.0 0.0 0.00 0.00 0.00 75 1017.7
20260905230957 20 0.0 0.0 0.00 0.00 0.00 75 1017.7
20260905225954 21 0.0 0.0 0.00 0.00 0.00 74 1017.7
20260905224951 21 0.0 0.0 0.00 0.00 0.00 73 1017.7
20260905223948 21 0.0 0.0 0.00 0.00 0.00 73 1017.7
20260905222945 21 0.0 0.0 0.00 0.00 0.00 75 1017.9
20260905221942 21 0.0 0.0 0.00 0.00 0.00 75 1017.9
20260905220939 21 0.0 0.0 0.00 0.00 0.00 75 1017.9
20260905215936 21 0.0 0.0 0.00 0.00 0.00 74 1017.9
20260905214932 20 0.0 0.0 0.00 0.00 0.00 74 1018.0
20260905213929 21 0.0 0.0 0.00 0.00 0.00 73 1018.1
20260905212926 21 0.0 0.0 0.00 0.00 0.00 72 1018.0
20260905211922 21 0.0 0.0 0.00 0.00 0.00 72 1018.2
20260905210919 21 0.0 0.0 0.00 0.00 0.00 70 1018.2
20260905205917 21 0.0 0.0 0.00 0.00 0.00 69 1018.1
20260905204913 22 0.0 0.0 0.00 0.00 0.00 69 1018.3
20260905203910 22 0.0 0.0 0.00 0.00 0.00 68 1018.2
20260905202907 22 0.0 0.0 0.00 0.00 0.00 67 1018.3
20260905201903 22 0.0 0.0 0.00 0.00 0.00 66 1018.1
20260905200900 23 0.0 0.0 0.00 0.00 0.00 65 1018.0
20260905195858 23 0.0 0.0 0.00 0.00 0.00 63 1018.0
20260905194854 23 0.0 0.0 0.00 0.00 0.00 62 1018.1
20260905193851 23 0.0 0.0 0.00 0.00 0.00 62 1018.1
20260905192847 23 0.0 0.0 0.00 0.00 0.00 62 1018.0
20260905191844 23 0.0 0.0 0.00 0.00 0.00 60 1018.0
20260905190841 23 0.0 0.0 0.00 0.00 0.00 60 1018.1
20260905184835 22 0.0 0.0 0.00 0.00 0.00 64 1018.0
20260905183831 23 0.0 0.0 0.00 0.00 0.00 64 1018.0
20260905182828 23 0.0 0.0 0.00 0.00 0.00 62 1018.0
20260905181825 23 0.0 0.0 0.00 0.00 0.00 60 1018.0
20260905180822 23 0.0 0.0 0.00 0.00 0.00 59 1017.9
20260905175820 23 0.0 0.0 0.00 0.00 0.00 58 1017.9
20260905174816 23 0.0 0.0 0.00 0.00 0.00 56 1017.9
20260905173813 24 0.0 0.0 0.00 0.00 0.00 53 1017.9
20260905172809 24 0.0 0.0 0.00 0.00 0.00 53 1017.7
20260905171806 25 0.0 0.0 0.00 0.00 0.00 52 1017.7
20260905170803 25 0.0 0.0 0.00 0.00 0.00 51 1017.7
20260905165800 25 0.0 0.0 0.00 0.00 0.00 48 1017.5
20260905164757 25 0.0 0.0 0.00 0.00 0.00 49 1017.5
20260905163754 26 0.0 0.0 0.00 0.00 0.00 46 1017.4
20260905162751 26 0.0 0.0 0.00 0.00 0.00 43 1017.3
20260905161747 26 0.0 0.0 0.00 0.00 0.00 40 1017.3
20260905160744 27 0.0 0.0 0.00 0.00 0.00 40 1017.2
20260905155741 27 0.0 0.0 0.00 0.00 0.00 40 1017.2
20260905154738 27 0.0 0.0 0.00 0.00 0.00 40 1017.1
20260905153735 27 0.0 0.0 0.00 0.00 0.00 39 1017.0
20260905152731 28 0.0 0.0 0.00 0.00 0.00 38 1017.1
20260905151729 28 0.0 0.0 0.00 0.00 0.00 37 1017.0
20260905150725 28 0.0 0.0 0.00 0.00 0.00 37 1017.1
20260905145722 28 0.0 0.0 0.00 0.00 0.00 35 1017.1
20260905144719 29 0.0 0.0 0.00 0.00 0.00 34 1017.1
20260905143716 29 0.0 0.0 0.00 0.00 0.00 33 1017.1
20260905142712 29 0.0 0.0 0.00 0.00 0.00 32 1017.0
20260905141709 30 0.0 0.0 0.00 0.00 0.00 32 1017.1
20260905140706 31 0.0 0.0 0.00 0.00 0.00 30 1017.0
20260905135703 32 0.0 0.0 0.00 0.00 0.00 29 1017.1
20260905134700 32 0.0 0.0 0.00 0.00 0.00 28 1017.2
20260905133657 32 0.0 0.0 0.00 0.00 0.00 29 1017.2
20260905132653 31 0.0 0.0 0.00 0.00 0.00 29 1017.3
20260905131650 33 0.0 0.0 0.00 0.00 0.00 28 1017.3
20260905130647 32 0.0 0.0 0.00 0.00 0.00 29 1017.5
20260905125644 32 0.0 0.0 0.00 0.00 0.00 29 1017.5
20260905124640 33 0.0 0.0 0.00 0.00 0.00 29 1017.6
20260905123637 31 0.0 0.0 0.00 0.00 0.00 30 1017.8
20260905122635 31 0.0 0.0 0.00 0.00 0.00 30 1017.8
20260905121631 32 0.0 0.0 0.00 0.00 0.00 29 1017.8
20260905120628 31 0.0 0.0 0.00 0.00 0.00 30 1018.1
20260905115625 31 0.0 0.0 0.00 0.00 0.00 31 1018.2
20260905114622 31 0.0 0.0 0.00 0.00 0.00 31 1018.3
20260905113619 31 0.0 0.0 0.00 0.00 0.00 31 1018.3
20260905112618 31 0.0 0.0 0.00 0.00 0.00 31 1018.4
20260905111611 30 0.0 0.0 0.00 0.00 0.00 32 1018.5
20260905110608 30 0.0 0.0 0.00 0.00 0.00 32 1018.5
20260905105605 30 0.0 0.0 0.00 0.00 0.00 33 1018.7
20260905104602 30 0.0 0.0 0.00 0.00 0.00 33 1018.8
20260905103559 29 0.0 0.0 0.00 0.00 0.00 36 1018.8
20260905102556 29 0.0 0.0 0.00 0.00 0.00 37 1018.9
20260905101553 29 0.0 0.0 0.00 0.00 0.00 38 1018.9
20260905100549 29 0.0 0.0 0.00 0.00 0.00 38 1019.0
20260905095546 28 0.0 0.0 0.00 0.00 0.00 38 1019.0
20260905094543 28 0.0 0.0 0.00 0.00 0.00 39 1019.0
20260905093540 28 0.0 0.0 0.00 0.00 0.00 41 1019.0
20260905092537 28 0.0 0.0 0.00 0.00 0.00 41 1019.1
20260905091534 28 0.0 0.0 0.00 0.00 0.00 43 1019.2
20260905090531 28 0.0 0.0 0.00 0.00 0.00 42 1019.2
20260905085527 28 0.0 0.0 0.00 0.00 0.00 43 1019.3
20260905084524 28 0.0 0.0 0.00 0.00 0.00 46 1019.4
20260905083521 28 0.0 0.0 0.00 0.00 0.00 48 1019.6
20260905082518 28 0.0 0.0 0.00 0.00 0.00 46 1019.7
20260905081515 27 0.0 0.0 0.00 0.00 0.00 48 1019.8
20260905080513 27 0.0 0.0 0.00 0.00 0.00 47 1019.8
20260905075509 27 0.0 0.0 0.00 0.00 0.00 54 1020.0